User: anonymous   Login
Location: Unspecified
(0.0000°N, 0.0000°E)
Time: 07:49:05
(UTC+00:00)
Language:

STARLINK-3549 - Orbit

View from above orbital plane
View from above orbital plane
View from above satellite
View from above satellite

Ground track
Ground track

The orbit is defined by the following mean orbital elements,

1 51891U          26145.05268179 +.00000000 +00000-0 -96985-4 0 00005
2 51891  53.2134  16.3134 0001503  81.5941 278.5222 15.08851900    04
Epoch (UTC): 25 May 2026 01:15:51
Eccentricity: 0.0001503
inclination: 53.2134°
perigee height: 539 km
apogee height: 541 km
right ascension of ascending node: 16.3134°
argument of perigee: 81.5941°
revolutions per day: 15.08851900
mean anomaly at epoch: 278.5222°

The dashed part of the orbit path shows where the satellite is in the earth's shadow,  

DLR